K9JVA Weather Reports


time (UTC)temp
F
wind
direction
speed
knots
gust
knots
rain 1hr
in
rain 24hr
in
rain mn
in
humidity
%
barometer
mb
20260509013246 63 0.0 0.0 0.00 0.00 0.00 60 1009.4
20260509012746 63 0.0 0.0 0.00 0.00 0.00 61 1009.4
20260509012247 63 0.0 0.0 0.00 0.00 0.00 61 1009.4
20260509011747 64 0.0 0.0 0.00 0.00 0.00 58 1009.4
20260509011248 64 0.0 0.0 0.00 0.00 0.00 58 1009.4
20260509010646 64 0.0 0.0 0.00 0.00 0.00 56 1009.3
20260509010146 64 0.0 0.0 0.00 0.00 0.00 55 1009.3
20260509005648 65 0.0 0.0 0.00 0.00 0.00 55 1009.2
20260509005147 65 0.0 0.0 0.00 0.00 0.00 54 1009.1
20260509004649 65 0.0 0.0 0.00 0.00 0.00 54 1008.9
20260509004147 65 0.0 0.0 0.00 0.00 0.00 53 1008.9
20260509003647 65 0.0 0.0 0.00 0.00 0.00 53 1008.7
20260509003409 66 0.0 0.0 0.00 0.00 0.00 52 1008.8
20260509002648 66 0.0 0.0 0.00 0.00 0.00 52 1008.7
20260509002148 66 0.0 0.0 0.00 0.00 0.00 52 1008.8
20260509001548 66 0.0 0.0 0.00 0.00 0.00 52 1008.9
20260509001048 66 0.0 0.0 0.00 0.00 0.00 52 1008.9
20260509000809 66 0.0 0.0 0.00 0.00 0.00 52 1008.9
20260509000049 66 0.0 0.0 0.00 0.00 0.00 52 1008.9
20260508235549 66 0.0 0.0 0.00 0.00 0.00 52 1008.8
20260508235049 66 0.0 0.0 0.00 0.00 0.00 52 1008.8
20260508234813 66 0.0 0.0 0.00 0.00 0.00 52 1008.9
20260508234310 66 0.0 0.0 0.00 0.00 0.00 53 1008.8
20260508233550 66 0.0 0.0 0.00 0.00 0.00 53 1008.9
20260508233048 66 0.0 0.0 0.00 0.00 0.00 52 1008.9
20260508232448 66 0.0 0.0 0.00 0.00 0.00 53 1008.9
20260508231849 67 0.0 0.0 0.00 0.00 0.00 52 1008.9
20260508231351 67 0.0 0.0 0.00 0.00 0.00 52 1008.9
20260508230849 67 0.0 0.0 0.00 0.00 0.00 52 1008.7
20260508230349 67 0.0 0.0 0.00 0.00 0.00 50 1008.8
20260508225849 67 0.0 0.0 0.00 0.00 0.00 50 1008.7
20260508225349 68 0.0 0.0 0.00 0.00 0.00 48 1008.7
20260508224850 67 0.0 0.0 0.00 0.00 0.00 52 1008.7
20260508224349 68 0.0 0.0 0.00 0.00 0.00 49 1008.8
20260508223850 68 0.0 0.0 0.00 0.00 0.00 47 1008.6
20260508223251 69 0.0 0.0 0.00 0.00 0.00 48 1008.5
20260508222749 69 0.0 0.0 0.00 0.00 0.00 47 1008.6
20260508222249 69 0.0 0.0 0.00 0.00 0.00 47 1008.6
20260508221750 69 0.0 0.0 0.00 0.00 0.00 48 1008.6
20260508221252 69 0.0 0.0 0.00 0.00 0.00 47 1008.5
20260508220750 69 0.0 0.0 0.00 0.00 0.00 48 1008.6
20260508220251 69 0.0 0.0 0.00 0.00 0.00 47 1008.6
20260508220007 69 0.0 0.0 0.00 0.00 0.00 46 1008.6
20260508215250 69 0.0 0.0 0.00 0.00 0.00 48 1008.5
20260508214752 69 0.0 0.0 0.00 0.00 0.00 47 1008.5
20260508214412 69 0.0 0.0 0.00 0.00 0.00 46 1008.7
20260508213652 69 0.0 0.0 0.00 0.00 0.00 46 1008.7
20260508213151 70 0.0 0.0 0.00 0.00 0.00 46 1008.8
20260508212653 69 0.0 0.0 0.00 0.00 0.00 46 1008.8
20260508212416 69 0.0 0.0 0.00 0.00 0.00 46 1008.8
20260508211909 70 0.0 0.0 0.00 0.00 0.00 45 1008.8
20260508211152 70 0.0 0.0 0.00 0.00 0.00 45 1009.0
20260508210652 70 0.0 0.0 0.00 0.00 0.00 45 1009.0
20260508210152 70 0.0 0.0 0.00 0.00 0.00 46 1009.2
20260508205652 70 0.0 0.0 0.00 0.00 0.00 43 1009.2
20260508205051 70 0.0 0.0 0.00 0.00 0.00 45 1009.4
20260508204551 70 0.0 0.0 0.00 0.00 0.00 43 1009.4
20260508204530 70 0.0 0.0 0.00 0.00 0.00 45 1009.5
20260508203552 71 0.0 0.0 0.00 0.00 0.00 45 1009.6
20260508203053 71 0.0 0.0 0.00 0.00 0.00 43 1009.6
20260508202553 71 0.0 0.0 0.00 0.00 0.00 43 1009.6
20260508202535 71 0.0 0.0 0.00 0.00 0.00 43 1009.7
20260508201552 71 0.0 0.0 0.00 0.00 0.00 45 1009.7
20260508201052 71 0.0 0.0 0.00 0.00 0.00 45 1009.7
20260508200817 71 0.0 0.0 0.00 0.00 0.00 42 1009.8
20260508195954 71 0.0 0.0 0.00 0.00 0.00 42 1009.8
20260508195452 71 0.0 0.0 0.00 0.00 0.00 42 1009.9
20260508194853 71 0.0 0.0 0.00 0.00 0.00 41 1009.9
20260508194354 72 0.0 0.0 0.00 0.00 0.00 41 1009.8
20260508193854 72 0.0 0.0 0.00 0.00 0.00 42 1010.0
20260508193353 73 0.0 0.0 0.00 0.00 0.00 42 1010.0
20260508193115 73 0.0 0.0 0.00 0.00 0.00 42 1009.9
20260508192354 74 0.0 0.0 0.00 0.00 0.00 39 1010.0
20260508192332 76 0.0 0.0 0.00 0.00 0.00 41 1010.1
20260508191354 77 0.0 0.0 0.00 0.00 0.00 38 1010.1
20260508191010 77 0.0 0.0 0.00 0.00 0.00 38 1010.4
20260508190154 76 0.0 0.0 0.00 0.00 0.00 45 1010.4
20260508185654 74 0.0 0.0 0.00 0.00 0.00 45 1010.4
20260508185154 74 0.0 0.0 0.00 0.00 0.00 40 1010.4
20260508184654 74 0.0 0.0 0.00 0.00 0.00 39 1010.7
20260508184154 74 0.0 0.0 0.00 0.00 0.00 40 1010.7
20260508183654 76 0.0 0.0 0.00 0.00 0.00 39 1010.8
20260508183155 75 0.0 0.0 0.00 0.00 0.00 41 1010.8
20260508183141 72 0.0 0.0 0.00 0.00 0.00 42 1011.0
20260508182155 72 0.0 0.0 0.00 0.00 0.00 41 1011.2
20260508181554 74 0.0 0.0 0.00 0.00 0.00 40 1011.2
20260508180954 76 0.0 0.0 0.00 0.00 0.00 41 1011.1
20260508180648 75 0.0 0.0 0.00 0.00 0.00 42 1011.4
20260508175718 74 0.0 0.0 0.00 0.00 0.00 41 1011.4
20260508174956 73 0.0 0.0 0.00 0.00 0.00 42 1011.5
20260508174455 73 0.0 0.0 0.00 0.00 0.00 43 1011.5
20260508173955 73 0.0 0.0 0.00 0.00 0.00 42 1011.7
20260508173456 74 0.0 0.0 0.00 0.00 0.00 43 1011.7
20260508172956 73 0.0 0.0 0.00 0.00 0.00 41 1012.1
20260508172355 72 0.0 0.0 0.00 0.00 0.00 42 1012.2
20260508171856 72 0.0 0.0 0.00 0.00 0.00 47 1012.1
20260508171355 72 0.0 0.0 0.00 0.00 0.00 45 1012.3
20260508171117 72 0.0 0.0 0.00 0.00 0.00 43 1012.4
20260508170357 73 0.0 0.0 0.00 0.00 0.00 43 1012.5
20260508165856 72 0.0 0.0 0.00 0.00 0.00 45 1012.6
20260508165359 72 0.0 0.0 0.00 0.00 0.00 42 1012.8
20260508164856 72 0.0 0.0 0.00 0.00 0.00 46 1012.8
20260508164356 73 0.0 0.0 0.00 0.00 0.00 45 1013.0
20260508164117 72 0.0 0.0 0.00 0.00 0.00 45 1013.0
20260508163517 72 0.0 0.0 0.00 0.00 0.00 45 1013.0
20260508162925 71 0.0 0.0 0.00 0.00 0.00 45 1013.2
20260508162157 72 0.0 0.0 0.00 0.00 0.00 46 1013.2
20260508161659 72 0.0 0.0 0.00 0.00 0.00 47 1013.2
20260508161156 72 0.0 0.0 0.00 0.00 0.00 47 1013.2
20260508160657 71 0.0 0.0 0.00 0.00 0.00 47 1013.2
20260508160158 71 0.0 0.0 0.00 0.00 0.00 46 1013.3
20260508155657 71 0.0 0.0 0.00 0.00 0.00 43 1013.4
20260508155157 71 0.0 0.0 0.00 0.00 0.00 46 1013.4
20260508154659 71 0.0 0.0 0.00 0.00 0.00 46 1013.5
20260508154059 70 0.0 0.0 0.00 0.00 0.00 46 1013.5
20260508153458 70 0.0 0.0 0.00 0.00 0.00 48 1013.6
20260508152958 70 0.0 0.0 0.00 0.00 0.00 47 1013.8
20260508152719 70 0.0 0.0 0.00 0.00 0.00 46 1013.8
20260508151958 69 0.0 0.0 0.00 0.00 0.00 49 1013.9
20260508151724 69 0.0 0.0 0.00 0.00 0.00 48 1013.9
20260508151227 69 0.0 0.0 0.00 0.00 0.00 47 1014.0
20260508150458 69 0.0 0.0 0.00 0.00 0.00 47 1013.9
20260508145958 69 0.0 0.0 0.00 0.00 0.00 49 1014.0
20260508145500 68 0.0 0.0 0.00 0.00 0.00 50 1014.0
20260508144859 68 0.0 0.0 0.00 0.00 0.00 48 1014.1
20260508144400 67 0.0 0.0 0.00 0.00 0.00 49 1014.0
20260508143859 65 0.0 0.0 0.00 0.00 0.00 50 1014.0
20260508143620 66 0.0 0.0 0.00 0.00 0.00 48 1014.2
20260508142859 65 0.0 0.0 0.00 0.00 0.00 49 1014.3
20260508142359 65 0.0 0.0 0.00 0.00 0.00 50 1014.3
20260508141901 64 0.0 0.0 0.00 0.00 0.00 49 1014.4
20260508141359 64 0.0 0.0 0.00 0.00 0.00 52 1014.4
20260508140900 63 0.0 0.0 0.00 0.00 0.00 52 1014.6
20260508140844 62 0.0 0.0 0.00 0.00 0.00 53 1014.5
20260508135800 63 0.0 0.0 0.00 0.00 0.00 54 1014.6
20260508135300 61 0.0 0.0 0.00 0.00 0.00 55 1014.7
20260508134800 61 0.0 0.0 0.00 0.00 0.00 55 1014.7
20260508134300 60 0.0 0.0 0.00 0.00 0.00 57 1014.7
20260508133801 59 0.0 0.0 0.00 0.00 0.00 57 1014.7
20260508133300 58 0.0 0.0 0.00 0.00 0.00 60 1014.7
20260508132800 58 0.0 0.0 0.00 0.00 0.00 61 1014.6
20260508132524 57 0.0 0.0 0.00 0.00 0.00 61 1014.7
20260508131800 57 0.0 0.0 0.00 0.00 0.00 62 1014.8
20260508131202 56 0.0 0.0 0.00 0.00 0.00 61 1014.7
20260508130702 56 0.0 0.0 0.00 0.00 0.00 62 1014.6
20260508130200 56 0.0 0.0 0.00 0.00 0.00 62 1014.6
20260508125603 55 0.0 0.0 0.00 0.00 0.00 63 1014.5
20260508125320 55 0.0 0.0 0.00 0.00 0.00 63 1014.6
20260508124820 54 0.0 0.0 0.00 0.00 0.00 64 1014.6
20260508124102 53 0.0 0.0 0.00 0.00 0.00 65 1014.5
20260508123601 53 0.0 0.0 0.00 0.00 0.00 67 1014.6
20260508123102 52 0.0 0.0 0.00 0.00 0.00 68 1014.5
20260508122602 51 0.0 0.0 0.00 0.00 0.00 69 1014.5
20260508122102 50 0.0 0.0 0.00 0.00 0.00 70 1014.5
20260508121504 48 0.0 0.0 0.00 0.00 0.00 72 1014.6
20260508120903 47 0.0 0.0 0.00 0.00 0.00 72 1014.6
20260508120402 48 0.0 0.0 0.00 0.00 0.00 72 1014.6
20260508115902 48 0.0 0.0 0.00 0.00 0.00 72 1014.6
20260508115626 48 0.0 0.0 0.00 0.00 0.00 73 1014.5
20260508114902 48 0.0 0.0 0.00 0.00 0.00 75 1014.6
20260508114403 47 0.0 0.0 0.00 0.00 0.00 76 1014.5
20260508113902 46 0.0 0.0 0.00 0.00 0.00 76 1014.4
20260508113402 46 0.0 0.0 0.00 0.00 0.00 76 1014.3
20260508112903 47 0.0 0.0 0.00 0.00 0.00 75 1014.2
20260508112306 47 0.0 0.0 0.00 0.00 0.00 75 1014.2
20260508111804 47 0.0 0.0 0.00 0.00 0.00 73 1014.2
20260508111304 47 0.0 0.0 0.00 0.00 0.00 73 1014.2
20260508110804 47 0.0 0.0 0.00 0.00 0.00 73 1014.1
20260508110522 47 0.0 0.0 0.00 0.00 0.00 73 1014.1
20260508105804 46 0.0 0.0 0.00 0.00 0.00 75 1014.1
20260508105306 47 0.0 0.0 0.00 0.00 0.00 73 1014.1
20260508104805 46 0.0 0.0 0.00 0.00 0.00 73 1014.1
20260508104303 46 0.0 0.0 0.00 0.00 0.00 75 1014.1
20260508103805 46 0.0 0.0 0.00 0.00 0.00 75 1014.1
20260508103204 46 0.0 0.0 0.00 0.00 0.00 76 1014.0
20260508102603 46 0.0 0.0 0.00 0.00 0.00 75 1014.0
20260508102106 46 0.0 0.0 0.00 0.00 0.00 76 1014.0
20260508101604 46 0.0 0.0 0.00 0.00 0.00 77 1014.0
20260508101327 45 0.0 0.0 0.00 0.00 0.00 78 1014.0
20260508100605 45 0.0 0.0 0.00 0.00 0.00 78 1013.9
20260508100104 45 0.0 0.0 0.00 0.00 0.00 78 1014.0
20260508095604 45 0.0 0.0 0.00 0.00 0.00 78 1014.0
20260508095106 45 0.0 0.0 0.00 0.00 0.00 78 1014.0
20260508094605 45 0.0 0.0 0.00 0.00 0.00 78 1014.0
20260508094004 44 0.0 0.0 0.00 0.00 0.00 78 1014.0
20260508093504 44 0.0 0.0 0.00 0.00 0.00 78 1013.9
20260508093005 44 0.0 0.0 0.00 0.00 0.00 79 1013.9
20260508092507 43 0.0 0.0 0.00 0.00 0.00 79 1014.0
20260508091905 43 0.0 0.0 0.00 0.00 0.00 82 1014.0
20260508091405 43 0.0 0.0 0.00 0.00 0.00 82 1014.0
20260508091129 42 0.0 0.0 0.00 0.00 0.00 80 1014.0
20260508090407 42 0.0 0.0 0.00 0.00 0.00 80 1014.1
20260508085906 42 0.0 0.0 0.00 0.00 0.00 82 1014.0
20260508085622 42 0.0 0.0 0.00 0.00 0.00 80 1013.9
20260508084806 42 0.0 0.0 0.00 0.00 0.00 80 1013.9
20260508084205 42 0.0 0.0 0.00 0.00 0.00 80 1013.8
20260508083934 42 0.0 0.0 0.00 0.00 0.00 82 1013.9
20260508083207 42 0.0 0.0 0.00 0.00 0.00 80 1013.9
20260508082706 42 0.0 0.0 0.00 0.00 0.00 80 1013.9
20260508082206 42 0.0 0.0 0.00 0.00 0.00 79 1013.9
20260508081706 42 0.0 0.0 0.00 0.00 0.00 79 1013.8
20260508081206 42 0.0 0.0 0.00 0.00 0.00 79 1013.7
20260508080706 42 0.0 0.0 0.00 0.00 0.00 79 1013.7
20260508080208 42 0.0 0.0 0.00 0.00 0.00 79 1013.8
20260508075706 42 0.0 0.0 0.00 0.00 0.00 79 1013.9
20260508075106 42 0.0 0.0 0.00 0.00 0.00 78 1013.8
20260508074831 42 0.0 0.0 0.00 0.00 0.00 79 1013.8
20260508074106 42 0.0 0.0 0.00 0.00 0.00 79 1013.7
20260508073606 42 0.0 0.0 0.00 0.00 0.00 79 1013.8
20260508073108 42 0.0 0.0 0.00 0.00 0.00 79 1013.8
20260508072609 42 0.0 0.0 0.00 0.00 0.00 79 1013.8
20260508072107 42 0.0 0.0 0.00 0.00 0.00 79 1013.8
20260508071608 42 0.0 0.0 0.00 0.00 0.00 79 1013.8
20260508071108 42 0.0 0.0 0.00 0.00 0.00 79 1013.9
20260508070607 42 0.0 0.0 0.00 0.00 0.00 79 1013.9
20260508070007 42 0.0 0.0 0.00 0.00 0.00 79 1013.9
20260508065507 42 0.0 0.0 0.00 0.00 0.00 79 1013.9
20260508065008 42 0.0 0.0 0.00 0.00 0.00 79 1014.0
20260508064508 42 0.0 0.0 0.00 0.00 0.00 78 1014.2
20260508064008 42 0.0 0.0 0.00 0.00 0.00 78 1014.3
20260508063741 42 0.0 0.0 0.00 0.00 0.00 79 1014.3
20260508063007 42 0.0 0.0 0.00 0.00 0.00 79 1014.4
20260508062509 42 0.0 0.0 0.00 0.00 0.00 79 1014.3
20260508062008 42 0.0 0.0 0.00 0.00 0.00 79 1014.4
20260508061409 42 0.0 0.0 0.00 0.00 0.00 79 1014.4
20260508060809 42 0.0 0.0 0.00 0.00 0.00 79 1014.5
20260508060209 42 0.0 0.0 0.00 0.00 0.00 79 1014.5
20260508055933 42 0.0 0.0 0.00 0.00 0.00 79 1014.5
20260508055210 42 0.0 0.0 0.00 0.00 0.00 79 1014.5
20260508054711 43 0.0 0.0 0.00 0.00 0.00 79 1014.5
20260508054653 43 0.0 0.0 0.00 0.00 0.00 79 1014.5
20260508053709 43 0.0 0.0 0.00 0.00 0.00 79 1014.6
20260508053209 43 0.0 0.0 0.00 0.00 0.00 79 1014.5
20260508052711 43 0.0 0.0 0.00 0.00 0.00 79 1014.4
20260508052427 43 0.0 0.0 0.00 0.00 0.00 79 1014.5
20260508051829 43 0.0 0.0 0.00 0.00 0.00 78 1014.4
20260508051010 44 0.0 0.0 0.00 0.00 0.00 77 1014.3
20260508050730 44 0.0 0.0 0.00 0.00 0.00 76 1014.3
20260508050012 44 0.0 0.0 0.00 0.00 0.00 77 1014.3
20260508045510 44 0.0 0.0 0.00 0.00 0.00 77 1014.4
20260508045010 44 0.0 0.0 0.00 0.00 0.00 78 1014.4
20260508044510 44 0.0 0.0 0.00 0.00 0.00 78 1014.4
20260508044236 44 0.0 0.0 0.00 0.00 0.00 78 1014.4
20260508043510 44 0.0 0.0 0.00 0.00 0.00 78 1014.3
20260508043012 44 0.0 0.0 0.00 0.00 0.00 77 1014.3
20260508042411 44 0.0 0.0 0.00 0.00 0.00 77 1014.3
20260508041811 44 0.0 0.0 0.00 0.00 0.00 77 1014.3
20260508041533 44 0.0 0.0 0.00 0.00 0.00 77 1014.2
20260508041034 44 0.0 0.0 0.00 0.00 0.00 77 1014.1
20260508040516 44 0.0 0.0 0.00 0.00 0.00 77 1014.2
20260508035313 44 0.0 0.0 0.00 0.00 0.00 77 1014.2
20260508034812 44 0.0 0.0 0.00 0.00 0.00 76 1014.2
20260508034312 44 0.0 0.0 0.00 0.00 0.00 76 1014.3
20260508033813 45 0.0 0.0 0.00 0.00 0.00 76 1014.3
20260508033312 45 0.0 0.0 0.00 0.00 0.00 76 1014.3
20260508032714 45 0.0 0.0 0.00 0.00 0.00 75 1014.3
20260508032112 45 0.0 0.0 0.00 0.00 0.00 75 1014.3
20260508031836 45 0.0 0.0 0.00 0.00 0.00 75 1014.3
20260508031112 45 0.0 0.0 0.00 0.00 0.00 73 1014.3
20260508030613 45 0.0 0.0 0.00 0.00 0.00 73 1014.2
20260508030112 45 0.0 0.0 0.00 0.00 0.00 73 1014.3
20260508025612 45 0.0 0.0 0.00 0.00 0.00 73 1014.3
20260508025336 46 0.0 0.0 0.00 0.00 0.00 72 1014.3
20260508024612 46 0.0 0.0 0.00 0.00 0.00 71 1014.3
20260508024014 46 0.0 0.0 0.00 0.00 0.00 71 1014.2
20260508023413 47 0.0 0.0 0.00 0.00 0.00 70 1014.1
20260508023135 47 0.0 0.0 0.00 0.00 0.00 70 1014.1
20260508022638 47 0.0 0.0 0.00 0.00 0.00 69 1014.2
20260508021914 47 0.0 0.0 0.00 0.00 0.00 69 1014.2
20260508021413 47 0.0 0.0 0.00 0.00 0.00 69 1014.0
20260508020913 47 0.0 0.0 0.00 0.00 0.00 68 1014.1
20260508020413 48 0.0 0.0 0.00 0.00 0.00 67 1014.1
20260508015913 48 0.0 0.0 0.00 0.00 0.00 67 1014.1
20260508015414 48 0.0 0.0 0.00 0.00 0.00 65 1014.1
20260508014915 49 0.0 0.0 0.00 0.00 0.00 64 1014.1
20260508014314 49 0.0 0.0 0.00 0.00 0.00 64 1014.1
20260508013714 49 0.0 0.0 0.00 0.00 0.00 62 1014.1